Location: Derby
(52.9213°N, 1.4761°W)
Time: 18:09:33
(UTC+01:00)

Tiros 1 - Pass Details

Date: 26 May 2025
Orbit: 620 x 651 km, 48.4° (Epoch: 13 June)

Event Time Altitude Azimuth Distance (km) Brightness Sun altitude
Rises 20:46:43 0° 275° (W) 2,903 11.8 2.5°
Reaches altitude 10° 20:49:15 10° 264° (W) 1,998 10.6 2.2°
Maximum altitude 20:53:12 29° 204° (SSW) 1,155 8.4 1.7°
Drops below altitude 10° 20:57:11 10° 145° (SE) 2,008 9.1 1.2°
Sets 20:59:44 0° 134° (SE) 2,920 9.8 0.9°
